Lakeville, MN

7:25 AM CST on November 22, 2017 (GMT -0600)
Airlake

Weather History for KLVN - September, 2011

Change the Weather History Date:

Monday, September 5, 2011

  Actual Average Record
Temperature  
Mean Temperature 54 °F -  
Max Temperature 68 °F 76 °F 94 °F (1960)
Min Temperature 39 °F 53 °F 38 °F (1974)
Degree Days  
Heating Degree Days 12    
Growing Degree Days 4 (Base 50)    
Moisture  
Dew Point 46 °F    
Average Humidity 79    
Maximum Humidity 100    
Minimum Humidity 46    
Precipitation  
Precipitation 0.00 in - - ()
Sea Level Pressure  
Sea Level Pressure 30.19 in    
Wind  
Wind Speed 0 mph (South)    
Max Wind Speed 7 mph    
Max Gust Speed -    
Visibility 9 miles    
Events Fog    
Averages and records for this station are not official NWS values.
T = Trace of Precipitation, MM = Missing Value Source: NWS Daily Summary

Daily Weather History Graph

Daily Weather History Graph

Search for Another Location

Airport or City:

Trip Planner

Search our weather history database for the weather conditions in past years. The results will help you decide how hot, cold, wet, or windy it might be!

Date:

Astronomy

Sep. 05, 2011 Rise Set
Actual Time 6:39 AM CDT 7:42 PM CDT
Civil Twilight 6:09 AM CDT 8:12 PM CDT
Nautical Twilight 5:34 AM CDT 8:48 PM CDT
Astronomical Twilight 4:56 AM CDT 9:25 PM CDT
Moon 3:40 PM CDT (9/5) No Moon Set
Length of Visible Light 14h 02m
Length of Day
13h 02m
First Quarter, 61% of the Moon is Illuminated
Sep 5
First Quarter
Sep 12
Full
Sep 20
Last Quarter
Sep 27
New
Oct 3
First Quarter

Hourly Weather History & Observations

Time (CDT) Temp. Dew Point Humidity Pressure Visibility Wind Dir Wind Speed Gust Speed Precip Events Conditions
12:07 AM 46.4 °F 44.6 °F 93% 30.20 in 10.0 mi Calm Calm - N/A   Clear
12:28 AM 46.4 °F 46.4 °F 100% 30.20 in 10.0 mi Calm Calm - N/A   Clear
12:48 AM 46.4 °F 44.6 °F 93% 30.20 in 10.0 mi Calm Calm - N/A   Clear
1:08 AM 44.6 °F 44.6 °F 100% 30.20 in 10.0 mi Calm Calm - N/A   Clear
1:28 AM 46.4 °F 44.6 °F 93% 30.20 in 10.0 mi Calm Calm - N/A   Clear
2:08 AM 44.6 °F 44.6 °F 100% 30.20 in 10.0 mi Calm Calm - N/A   Clear
2:48 AM 42.8 °F 42.8 °F 100% 30.20 in 7.0 mi Calm Calm - N/A   Clear
3:08 AM 42.8 °F 42.8 °F 100% 30.20 in 4.0 mi Calm Calm - N/A   Clear
3:28 AM 42.8 °F 42.8 °F 100% 30.20 in 10.0 mi Calm Calm - N/A   Clear
3:48 AM 42.8 °F 42.8 °F 100% 30.20 in 10.0 mi Calm Calm - N/A   Clear
4:07 AM 44.6 °F 44.6 °F 100% 30.20 in 10.0 mi Calm Calm - N/A   Clear
4:28 AM 42.8 °F 42.8 °F 100% 30.20 in 7.0 mi Calm Calm - N/A   Clear
4:48 AM 42.8 °F 42.8 °F 100% 30.21 in 7.0 mi Calm Calm - N/A   Clear
5:07 AM 41.0 °F 41.0 °F 100% 30.21 in 5.0 mi Calm Calm - N/A   Clear
5:28 AM 41.0 °F 41.0 °F 100% 30.21 in 1.8 mi Calm Calm - N/A   Mist
5:48 AM 41.0 °F 41.0 °F 100% 30.21 in 7.0 mi Calm Calm - N/A   Clear
6:07 AM 41.0 °F 41.0 °F 100% 30.21 in 3.0 mi Calm Calm - N/A   Clear
6:28 AM 39.2 °F 39.2 °F 100% 30.22 in 5.0 mi Calm Calm - N/A   Clear
7:07 AM 42.8 °F 42.8 °F 100% 30.22 in 0.5 mi Calm Calm - N/A Fog Fog
7:28 AM 44.6 °F 44.6 °F 100% 30.23 in 7.0 mi Calm Calm - N/A   Clear
7:47 AM 46.4 °F 46.4 °F 100% 30.23 in 10.0 mi Calm Calm - N/A   Clear
8:08 AM 48.2 °F 48.2 °F 100% 30.24 in 10.0 mi Calm Calm - N/A   Clear
8:28 AM 51.8 °F 51.8 °F 100% 30.24 in 10.0 mi Calm Calm - N/A   Clear
8:47 AM 53.6 °F 51.8 °F 94% 30.24 in 10.0 mi Calm Calm - N/A   Clear
9:08 AM 55.4 °F 51.8 °F 88% 30.24 in 10.0 mi Calm Calm - N/A   Clear
9:28 AM 55.4 °F 51.8 °F 88% 30.24 in 10.0 mi Calm Calm - N/A   Clear
10:08 AM 60.8 °F 48.2 °F 63% 30.24 in 10.0 mi Calm Calm - N/A   Clear
10:28 AM 60.8 °F 46.4 °F 59% 30.24 in 10.0 mi Calm Calm - N/A   Clear
10:47 AM 62.6 °F 48.2 °F 59% 30.24 in 10.0 mi Calm Calm - N/A   Clear
11:08 AM 62.6 °F 46.4 °F 55% 30.24 in 10.0 mi Calm Calm - N/A   Clear
11:28 AM 62.6 °F 46.4 °F 55% 30.23 in 10.0 mi ESE 3.5 mph - N/A   Scattered Clouds
11:48 AM 64.4 °F 48.2 °F 56% 30.22 in 10.0 mi NW 6.9 mph - N/A   Scattered Clouds
12:08 PM 64.4 °F 46.4 °F 52% 30.22 in 10.0 mi ESE 3.5 mph - N/A   Scattered Clouds
12:28 PM 62.6 °F 48.2 °F 59% 30.23 in 10.0 mi Calm Calm - N/A   Overcast
12:48 PM 64.4 °F 48.2 °F 56% 30.22 in 10.0 mi SE 3.5 mph - N/A   Scattered Clouds
1:08 PM 66.2 °F 46.4 °F 49% 30.21 in 10.0 mi SSW 4.6 mph - N/A   Clear
1:48 PM 66.2 °F 46.4 °F 49% 30.20 in 10.0 mi Calm Calm - N/A   Overcast
2:28 PM 68.0 °F 46.4 °F 46% 30.18 in 10.0 mi South 3.5 mph - N/A   Mostly Cloudy
2:48 PM 66.2 °F 46.4 °F 49% 30.17 in 10.0 mi West 3.5 mph - N/A   Mostly Cloudy
3:08 PM 68.0 °F 46.4 °F 46% 30.16 in 10.0 mi SW 3.5 mph - N/A   Overcast
3:28 PM 64.4 °F 46.4 °F 52% 30.16 in 10.0 mi SE 3.5 mph - N/A   Overcast
3:48 PM 64.4 °F 46.4 °F 52% 30.15 in 10.0 mi Calm Calm - N/A   Overcast
4:08 PM 68.0 °F 46.4 °F 46% 30.15 in 10.0 mi Calm Calm - N/A   Overcast
4:28 PM 66.2 °F 48.2 °F 52% 30.14 in 10.0 mi West 3.5 mph - N/A   Overcast
4:47 PM 66.2 °F 48.2 °F 52% 30.14 in 10.0 mi Calm Calm - N/A   Mostly Cloudy
5:08 PM 66.2 °F 46.4 °F 49% 30.14 in 10.0 mi Calm Calm - N/A   Scattered Clouds
5:28 PM 66.2 °F 46.4 °F 49% 30.14 in 10.0 mi Calm Calm - N/A   Scattered Clouds
6:08 PM 66.2 °F 46.4 °F 49% 30.13 in 10.0 mi SSE 3.5 mph - N/A   Clear
6:28 PM 64.4 °F 48.2 °F 56% 30.13 in 10.0 mi Calm Calm - N/A   Clear
6:48 PM 62.6 °F 48.2 °F 59% 30.14 in 10.0 mi Calm Calm - N/A   Scattered Clouds
7:08 PM 60.8 °F 50.0 °F 68% 30.14 in 10.0 mi Calm Calm - N/A   Scattered Clouds
7:28 PM 59.0 °F 51.8 °F 77% 30.13 in 10.0 mi Calm Calm - N/A   Scattered Clouds
7:48 PM 57.2 °F 51.8 °F 82% 30.14 in 7.0 mi Calm Calm - N/A   Scattered Clouds
8:08 PM 55.4 °F 51.8 °F 88% 30.14 in 10.0 mi Calm Calm - N/A   Scattered Clouds
8:28 PM 53.6 °F 51.8 °F 94% 30.14 in 10.0 mi Calm Calm - N/A   Clear
8:48 PM 51.8 °F 48.2 °F 88% 30.15 in 10.0 mi Calm Calm - N/A   Clear
9:08 PM 48.2 °F 48.2 °F 100% 30.15 in 10.0 mi Calm Calm - N/A   Clear
9:28 PM 48.2 °F 48.2 °F 100% 30.15 in 7.0 mi Calm Calm - N/A   Clear
9:48 PM 48.2 °F 46.4 °F 93% 30.15 in 10.0 mi Calm Calm - N/A   Clear
10:08 PM 48.2 °F 46.4 °F 93% 30.15 in 10.0 mi Calm Calm - N/A   Clear
10:28 PM 48.2 °F 48.2 °F 100% 30.16 in 10.0 mi SSE 3.5 mph - N/A   Clear
11:07 PM 48.2 °F 48.2 °F 100% 30.16 in 10.0 mi SSW 3.5 mph - N/A   Clear
11:28 PM 48.2 °F 46.4 °F 93% 30.16 in 10.0 mi Calm Calm - N/A   Clear
11:48 PM 48.2 °F 46.4 °F 93% 30.17 in 10.0 mi Calm Calm - N/A   Clear